Overview Statistics Trail Chart Weather Telemetry Raw packets
 

This is the latest recevied weather packets stored in our database for station/object OK2ZA-6. If no packets are shown the sender has not sent any weather packets the latest 10 day(s).

<< 51 52 53 54 55 56 57 >>
Time Temp. Humidity Pressure Rain* Wind** Luminosity Snow
1787915404 26.67° C 46% 1014.3 hPa 0 mm - - -
1787914804 26.67° C 45% 1014.3 hPa 0 mm - - -
1787914204 26.11° C 46% 1014.5 hPa 0 mm - - -
1787913604 26.11° C 46% 1014.5 hPa 0 mm - - -
1787913004 26.11° C 47% 1014.7 hPa 0 mm - - -
1787912404 25.56° C 47% 1015 hPa 0 mm - - -
1787911804 25.56° C 47% 1015 hPa 0 mm - - -
1787911204 25.56° C 47% 1015.3 hPa 0 mm - - -
1787910604 25° C 48% 1015.5 hPa 0 mm - - -
1787910004 25.56° C 48% 1015.7 hPa 0 mm - - -
1787909404 25° C 48% 1015.7 hPa 0 mm - - -
1787908804 24.44° C 49% 1015.8 hPa 0 mm - - -
1787908204 24.44° C 49% 1015.8 hPa 0 mm - - -
1787907604 23.89° C 50% 1016 hPa 0 mm - - -
1787907013 23.33° C 52% 1016.2 hPa 0 mm - - -
1787906404 22.78° C 53% 1016.1 hPa 0 mm - - -
1787905804 22.78° C 53% 1016.1 hPa 0 mm - - -
1787905204 22.78° C 54% 1016.3 hPa 0 mm - - -
1787904604 21.67° C 55% 1016.3 hPa 0 mm - - -
1787904004 22.22° C 54% 1016.4 hPa 0 mm - - -
1787903404 22.22° C 54% 1016.6 hPa 0 mm - - -
1787902804 21.67° C 55% 1016.8 hPa 0 mm - - -
1787902204 21.67° C 55% 1016.9 hPa 0 mm - - -
1787901604 21.11° C 57% 1017.1 hPa 0 mm - - -
1787901004 20.56° C 57% 1017.1 hPa 0 mm - - -

* Rain latest hour (hover to see other rain measurements)
** Current wind speed in m/s (hover to see current wind gust speed)